Regional Weather Roundup
Issued by NWS

Home | Current Version | Previous Version | Graphics & Text | Print | Product List | Glossary On
Versions: 1 2 3 4 5 6 7 8 9 10 11 12 13 14 15 16 17 18 19 20 21 22 23 24 25 26 27 28 29 30 31 32 33 34 35 36 37 38 39 40 41 42 43 44 45 46 47 48 49 50
000
ASUS45 KSLC 030710
RWRUT

UTAH REGIONAL WEATHER ROUNDUP
NATIONAL WEATHER SERVICE SALT LAKE CITY UT
1200 AM MST TUE MAR 03 2015

UTZ001>011-023>025-030800-

NORTHERN UTAH

CITY           SKY/WX    TMP DP  RH WIND       PRES   REMARKS
BRIGHAM CITY   CLOUDY    33  32  96 CALM      29.80S
HILL AFB       CLOUDY    32  32 100 SE5       29.79R WCI  27
LOGAN          CLOUDY    35  29  78 S5        29.77S WCI  31
OGDEN          CLOUDY    33  32  96 SE5       29.79R WCI  29
PROVO AIRPORT  CLOUDY    36  32  87 W3        29.83R
SALT LAKE CITY MOCLDY    34  33  96 SE3       29.80R
VERNAL         CLOUDY    32  31  96 E5        29.72R WCI  27
WENDOVER       MOCLDY    34  27  75 W8        29.80S WCI  27
HEBER CITY     CLOUDY    32  30  93 CALM      29.77R
WEST JORDAN    CLOUDY    34  34 100 S3        29.81R

$$

UTZ012>022-026-027-030800-

SOUTHERN/CENTRAL UTAH

CITY           SKY/WX    TMP DP  RH WIND       PRES   REMARKS
BLANDING       PTCLDY    30  29  96 SW6       29.98F WCI  24
BRYCE CANYON   PTCLDY    16  12  84 SW12      29.87S WCI   3
CEDAR CITY     CLOUDY    30  28  92 S12       29.89S WCI  20
DELTA          CLOUDY    31  31 100 S8        29.85S WCI  24
HANKSVILLE     CLEAR     39  28  65 SW13G24   29.84S WCI  32
MILFORD        CLOUDY    32  27  81 S13       29.88R WCI  22
MOAB/CYNLANDS  PTCLDY    35  30  82 E8        29.80S WCI  29
PRICE          CLOUDY    32  27  81 E8        29.75R WCI  25
ST GEORGE      CLOUDY    41  36  81 CALM      29.97R
KANAB          MOCLDY    34  34 100 SW7       29.96S WCI  28

$$

REGIONAL REPORTS     COLORADO/ARIZONA

CITY           SKY/WX    TMP DP  RH WIND       PRES   REMARKS
CRAIG, CO      CLOUDY    34  26  72 SW24G35   29.67S WCI  21
GRAND JUNCTION MOCLDY    38  24  57 N5        29.78F WCI  34
RIFLE          CLOUDY    37  28  70 W9        29.76F WCI  30
MONTROSE       PTCLDY    36  24  62 SW16      29.86F WCI  26
CORTEZ         CLOUDY    34  29  82 S13       29.93F WCI  25
PAGE, AZ       NOT AVBL
GRAND CANYON   CLOUDY    29  28  96 SW7       29.96R WCI  22
KINGMAN        CLEAR     35  32  88 SE6       29.97R WCI  30
FLAGSTAFF      CLOUDY    29  26  89 W7        29.94F WCI  22

$$

REGIONAL REPORTS    NEVADA/IDAHO/WYOMING

CITY           SKY/WX    TMP DP  RH WIND       PRES   REMARKS
LAS VEGAS, NV  PTCLDY    48  36  63 SE6       29.89R
ELY            CLOUDY    23  22  96 VRB3      29.87R
ELKO           CLOUDY    33  26  75 SW3       29.81S
POCATELLO, ID  CLEAR     34  20  56 SW22      29.71R WCI  22
BURLEY         CLOUDY    34  19  54 W17       29.72S WCI  23
EVANSTON, WY   MOCLDY    23  20  88 W18       29.72R WCI   9
ROCK SPRINGS   CLOUDY    28  25  88 W25G32    29.63R WCI  13
KEMMERER       PTCLDY    23  21  93 W17G23    29.66R WCI   9

$$


USA.gov is the U.S. government's official web portal to all federal, state and local government web resources and services.